When you browse on this site, cookies collect data to enhance your experience and personalize the content and advertising you see.
Visit our Privacy Policy to learn more. By continuing to use the site, you agree to this use of cookies and data.
  • In Czech Republic
  • List of Countries
  • For 7 days
  • Water Temperature
  • Weather Map
  • Weather Widgets
  • user-avatar
    Login

    Hourly Weather Boden

    Today, 26 May, Tuesday

    Time Temperature Precipitation Wind Pressure Humidity
    00:00 +10°C° 0 mm 1 mps 770 mmHg 79%
    01:00 +9°C° 0 mm 1 mps 771 mmHg 81%
    02:00 +10°C° 0 mm 1 mps 771 mmHg 79%
    03:00 +10°C° 0 mm 1 mps 771 mmHg 77%
    04:00 +11°C° 0 mm 1 mps 771 mmHg 74%
    05:00 +13°C° 0 mm 1 mps 771 mmHg 67%
    06:00 +14°C° 0 mm 1 mps 771 mmHg 59%
    07:00 +16°C° 0 mm 1 mps 771 mmHg 49%
    08:00 +17°C° 0 mm 2 mps 770 mmHg 47%
    09:00 +18°C° 0 mm 3 mps 770 mmHg 44%
    10:00 +18°C° 0 mm 3 mps 770 mmHg 42%
    11:00 +19°C° 0 mm 3 mps 770 mmHg 39%
    12:00 +19°C° 0 mm 3 mps 769 mmHg 37%
    13:00 +19°C° 0 mm 3 mps 769 mmHg 35%
    14:00 +19°C° 0 mm 3 mps 769 mmHg 36%
    15:00 +19°C° 0 mm 3 mps 768 mmHg 37%
    16:00 +18°C° 0 mm 3 mps 768 mmHg 38%
    17:00 +17°C° 0 mm 3 mps 768 mmHg 44%
    18:00 +16°C° 0 mm 3 mps 767 mmHg 50%
    19:00 +14°C° 0 mm 3 mps 767 mmHg 56%
    20:00 +14°C° 0 mm 3 mps 767 mmHg 60%
    21:00 +14°C° 0 mm 2 mps 766 mmHg 63%
    22:00 +13°C° 0 mm 2 mps 766 mmHg 66%
    23:00 +13°C° 0.1 mm 2 mps 766 mmHg 71%

    Tomorrow, 27 May, Wednesday

    Time Temperature Precipitation Wind Pressure Humidity
    00:00 +12°C° 0.1 mm 2 mps 766 mmHg 76%
    01:00 +12°C° 0.1 mm 2 mps 765 mmHg 81%
    02:00 +12°C° 0.2 mm 2 mps 765 mmHg 84%
    03:00 +12°C° 0.2 mm 1 mps 765 mmHg 87%
    04:00 +12°C° 0.2 mm 1 mps 764 mmHg 90%
    05:00 +12°C° 0.1 mm 1 mps 764 mmHg 86%
    06:00 +13°C° 0.1 mm 2 mps 764 mmHg 81%
    07:00 +14°C° 0.1 mm 2 mps 764 mmHg 76%
    08:00 +14°C° 0.1 mm 2 mps 764 mmHg 66%
    09:00 +14°C° 0.1 mm 3 mps 763 mmHg 56%
    10:00 +16°C° 0.1 mm 3 mps 763 mmHg 46%
    11:00 +16°C° 0 mm 3 mps 763 mmHg 42%
    12:00 +17°C° 0 mm 3 mps 763 mmHg 38%
    13:00 +17°C° 0 mm 3 mps 762 mmHg 34%
    14:00 +17°C° 0 mm 3 mps 762 mmHg 34%
    15:00 +17°C° 0 mm 3 mps 762 mmHg 33%
    16:00 +17°C° 0 mm 4 mps 761 mmHg 33%
    17:00 +17°C° 0 mm 4 mps 761 mmHg 36%
    18:00 +15°C° 0 mm 4 mps 761 mmHg 40%
    19:00 +14°C° 0 mm 4 mps 761 mmHg 43%
    20:00 +12°C° 0 mm 4 mps 762 mmHg 48%
    21:00 +11°C° 0 mm 4 mps 762 mmHg 53%
    22:00 +8°C° 0 mm 4 mps 762 mmHg 57%
    23:00 +7°C° 0 mm 4 mps 762 mmHg 56%

    Day after tomorrow, 28 May, Thursday

    Time Temperature Precipitation Wind Pressure Humidity
    00:00 +7°C° 0 mm 4 mps 763 mmHg 56%
    01:00 +6°C° 0 mm 4 mps 763 mmHg 55%
    02:00 +6°C° 0 mm 4 mps 763 mmHg 55%
    03:00 +6°C° 0 mm 4 mps 763 mmHg 55%
    04:00 +8°C° 0 mm 3 mps 763 mmHg 54%
    05:00 +9°C° 0 mm 3 mps 763 mmHg 51%
    06:00 +10°C° 0 mm 3 mps 764 mmHg 47%
    07:00 +11°C° 0 mm 3 mps 764 mmHg 43%
    08:00 +12°C° 0 mm 3 mps 763 mmHg 39%
    09:00 +14°C° 0 mm 2 mps 763 mmHg 35%
    10:00 +15°C° 0 mm 2 mps 763 mmHg 31%
    11:00 +15°C° 0 mm 2 mps 763 mmHg 30%
    12:00 +16°C° 0 mm 3 mps 763 mmHg 30%
    13:00 +16°C° 0 mm 3 mps 763 mmHg 29%
    14:00 +16°C° 0 mm 3 mps 763 mmHg 31%
    15:00 +16°C° 0 mm 3 mps 763 mmHg 32%
    16:00 +16°C° 0 mm 3 mps 762 mmHg 34%
    17:00 +15°C° 0 mm 2 mps 763 mmHg 37%
    18:00 +15°C° 0 mm 2 mps 763 mmHg 41%
    19:00 +14°C° 0 mm 1 mps 763 mmHg 44%
    20:00 +13°C° 0 mm 1 mps 763 mmHg 49%
    21:00 +11°C° 0 mm 1 mps 764 mmHg 53%
    22:00 +10°C° 0 mm 1 mps 764 mmHg 58%
    23:00 +8°C° 0 mm 2 mps 765 mmHg 60%

    29 May, Friday

    Time Temperature Precipitation Wind Pressure Humidity
    00:00 +7°C° 0 mm 2 mps 765 mmHg 63%
    01:00 +6°C° 0 mm 2 mps 765 mmHg 66%
    02:00 +6°C° 0 mm 2 mps 766 mmHg 64%
    03:00 +7°C° 0 mm 2 mps 766 mmHg 63%
    04:00 +7°C° 0 mm 2 mps 766 mmHg 61%
    05:00 +9°C° 0 mm 2 mps 766 mmHg 56%
    06:00 +10°C° 0 mm 2 mps 766 mmHg 52%
    07:00 +12°C° 0 mm 2 mps 766 mmHg 47%
    08:00 +14°C° 0 mm 1 mps 766 mmHg 43%
    09:00 +15°C° 0 mm 1 mps 766 mmHg 39%
    10:00 +16°C° 0 mm 1 mps 766 mmHg 35%
    11:00 +17°C° 0 mm 2 mps 766 mmHg 33%
    12:00 +17°C° 0 mm 2 mps 766 mmHg 32%
    13:00 +18°C° 0 mm 2 mps 766 mmHg 31%
    14:00 +18°C° 0 mm 2 mps 766 mmHg 32%
    15:00 +18°C° 0 mm 2 mps 766 mmHg 34%
    16:00 +17°C° 0 mm 2 mps 766 mmHg 35%
    17:00 +17°C° 0 mm 2 mps 766 mmHg 39%
    18:00 +16°C° 0 mm 1 mps 766 mmHg 42%
    19:00 +15°C° 0 mm 1 mps 766 mmHg 46%
    20:00 +14°C° 0 mm 1 mps 767 mmHg 52%
    21:00 +12°C° 0 mm 1 mps 767 mmHg 57%
    22:00 +10°C° 0 mm 1 mps 768 mmHg 63%
    23:00 +10°C° 0 mm 1 mps 768 mmHg 65%

    30 May, Saturday

    Time Temperature Precipitation Wind Pressure Humidity
    00:00 +8°C° 0 mm 2 mps 769 mmHg 68%
    01:00 +7°C° 0 mm 2 mps 769 mmHg 71%
    02:00 +8°C° 0 mm 2 mps 769 mmHg 69%
    03:00 +8°C° 0 mm 2 mps 769 mmHg 67%
    04:00 +9°C° 0 mm 2 mps 770 mmHg 65%
    05:00 +12°C° 0 mm 2 mps 770 mmHg 59%
    06:00 +13°C° 0 mm 2 mps 770 mmHg 53%
    07:00 +15°C° 0 mm 1 mps 771 mmHg 48%
    08:00 +16°C° 0 mm 1 mps 771 mmHg 44%
    09:00 +19°C° 0 mm 1 mps 771 mmHg 40%
    10:00 +20°C° 0 mm 1 mps 771 mmHg 37%
    11:00 +21°C° 0 mm 1 mps 771 mmHg 36%
    12:00 +21°C° 0 mm 1 mps 771 mmHg 35%
    13:00 +22°C° 0 mm 1 mps 771 mmHg 34%
    14:00 +21°C° 0 mm 1 mps 771 mmHg 35%
    15:00 +20°C° 0 mm 1 mps 771 mmHg 36%
    16:00 +20°C° 0 mm 1 mps 771 mmHg 37%
    17:00 +19°C° 0 mm 1 mps 771 mmHg 40%
    18:00 +19°C° 0 mm 1 mps 771 mmHg 44%
    19:00 +18°C° 0 mm 1 mps 771 mmHg 47%
    20:00 +16°C° 0 mm 1 mps 772 mmHg 52%
    21:00 +14°C° 0 mm 1 mps 772 mmHg 57%
    22:00 +12°C° 0 mm 1 mps 773 mmHg 61%
    23:00 +11°C° 0 mm 1 mps 773 mmHg 63%

    31 May, Sunday

    Time Temperature Precipitation Wind Pressure Humidity
    00:00 +10°C° 0 mm 0 mps 773 mmHg 65%
    01:00 +9°C° 0 mm 0 mps 773 mmHg 66%
    02:00 +10°C° 0 mm 0 mps 773 mmHg 64%
    03:00 +11°C° 0 mm 0 mps 773 mmHg 62%
    04:00 +12°C° 0 mm 1 mps 773 mmHg 60%
    05:00 +14°C° 0 mm 1 mps 773 mmHg 55%
    06:00 +16°C° 0 mm 1 mps 773 mmHg 49%
    07:00 +18°C° 0 mm 1 mps 773 mmHg 43%
    08:00 +18°C° 0 mm 2 mps 773 mmHg 41%
    09:00 +19°C° 0 mm 2 mps 773 mmHg 38%
    10:00 +20°C° 0 mm 2 mps 773 mmHg 36%
    11:00 +21°C° 0 mm 3 mps 772 mmHg 36%
    12:00 +21°C° 0 mm 3 mps 772 mmHg 36%
    13:00 +21°C° 0 mm 4 mps 772 mmHg 36%
    14:00 +21°C° 0 mm 4 mps 771 mmHg 37%
    15:00 +21°C° 0 mm 4 mps 771 mmHg 37%
    16:00 +20°C° 0 mm 3 mps 771 mmHg 38%
    17:00 +19°C° 0 mm 3 mps 770 mmHg 41%
    18:00 +18°C° 0 mm 3 mps 770 mmHg 43%
    19:00 +17°C° 0 mm 3 mps 770 mmHg 45%
    20:00 +16°C° 0 mm 2 mps 770 mmHg 50%
    21:00 +14°C° 0 mm 2 mps 770 mmHg 54%
    22:00 +12°C° 0 mm 2 mps 770 mmHg 58%
    23:00 +12°C° 0 mm 2 mps 770 mmHg 59%
    Show more